Regional Weather Roundup
Issued by NWS Sioux Falls, SD

Home | Current Version | Previous Version | Text Only | Print | Product List | Glossary On
Versions: 1 2 3 4 5 6 7 8 9 10 11 12 13 14 15 16 17 18 19 20 21 22 23 24 25 26 27 28 29 30 31 32 33 34 35 36 37 38 39 40 41 42 43 44 45 46 47 48 49 50
000
ASUS43 KFSD 301910
RWRFSD

WEATHER ROUNDUP FOR SE SOUTH DAKOTA/SW MINNESOTA/NW IOWA
NATIONAL WEATHER SERVICE SIOUX FALLS SD
200 PM CDT SAT MAY 30 2015

NOTE: "FAIR" INDICATES FEW OR NO CLOUDS BELOW 12,000 FEET WITH NO
SIGNIFICANT WEATHER AND OR OBSTRUCTIONS TO VISIBILITY.


SDZ038>040-050-052>070-302000-
SOUTHEAST SOUTH DAKOTA

CITY           SKY/WX    TMP DP  RH WIND       PRES   REMARKS
BROOKINGS      SUNNY     52  39  62 N9G20     30.29F
CHAMBERLAIN    SUNNY     55  33  42 N8        30.30F
HURON          SUNNY     58  34  40 NE8       30.29F
MADISON        FAIR      54  39  58 NE13G20   30.28F
MITCHELL       SUNNY     60  38  43 NE14G20   30.29F
SIOUX FALLS    MOSUNNY   58  43  57 N14       30.26F
WINNER         FAIR      59  34  39 NE14G20   30.30F
YANKTON        SUNNY     61  39  44 N14G20    30.25F
$$

MNZ071-072-080-081-089-090-097-098-302000-
SOUTHWEST MINNESOTA

CITY           SKY/WX    TMP DP  RH WIND       PRES   REMARKS
FAIRMONT       MOSUNNY   57  43  58 N17       30.23S
JACKSON        MOSUNNY   57  46  67 N14G22    30.24F
LUVERNE        SUNNY     59  41  51 N12G18    30.26F
MARSHALL       SUNNY     55  37  50 N20G25    30.27F
MONTEVIDEO     MOSUNNY   57  43  58 NE13G20   30.30S
PIPESTONE      MOSUNNY   55  41  58 NE14G20   30.26F
REDWOOD FALLS  SUNNY     59  41  51 N12G18    30.26F
TRACY          SUNNY     57  43  59 N18       30.27S
WINDOM         MOSUNNY   57  43  58 N17       30.25S
WORTHINGTON    SUNNY     55  41  58 N18G26    30.25S
$$

IAZ001>003-012>014-020>022-031-032-NEZ013-014-SDZ071-302000-
NORTHWEST IOWA

CITY           SKY/WX    TMP DP  RH WIND       PRES   REMARKS
CHEROKEE       SUNNY     61  44  53 N12G20    30.21F
DENISON        SUNNY     63  50  63 N14G21    30.17F
ESTHERVILLE    MOSUNNY   58  45  62 N18G26    30.22F
LE MARS        SUNNY     61  45  55 N14G22    30.24F
ORANGE CITY    SUNNY     57  43  58 N9G20     30.24S
SHELDON        SUNNY     59  59 100 N16G22    30.22F
SIOUX CITY     SUNNY     64  43  46 N10G22    30.22F
SPENCER        SUNNY     60  43  53 N17G25    30.23S
STORM LAKE     SUNNY     61  41  48 NE18      30.20F
$$

ABBREVIATIONS USED IN REMARKS
   TC - TEMPERATURE IN CELSIUS
  WCI - WIND CHILL INDEX
   HX - HEAT INDEX
  VSB - VISIBILITY



USA.gov is the U.S. government's official web portal to all federal, state and local government web resources and services.